Miscellaneous Local Product
Issued by NWS North Platte, NE

Home | Current Version | Previous Version | Graphics & Text | Print | Product List | Glossary On
Versions: 1 2 3 4 5 6 7 8 9 10 11 12 13 14 15 16 17 18 19 20 21 22 23 24 25 26 27 28 29 30 31 32 33 34 35 36 37 38 39 40 41 42 43 44 45 46 47 48 49 50
906
AXUS43 KLBF 221310
MISLBF


WESTERN AND NORTH CENTRAL NEBRASKA HOURLY WEATHER ROUNDUP
NATIONAL WEATHER SERVICE NORTH PLATTE NE
800 AM CDT SUN APR 22 2018

NOTE: "FAIR" INDICATES FEW OR NO CLOUDS BELOW 12,000 FEET WITH NO
SIGNIFICANT WEATHER AND/OR OBSTRUCTIONS TO VISIBILITY.

NOTE: STATIONS NOT REPORTING VARIABLES SUCH AS SKY/WEATHER OR
PRESSURE ARE PROVIDED BY RAWS AND APRS NETWORKS AND ARE NOT UNDER
NATIONAL WEATHER SERVICE QUALITY CONTROL.

...OBSERVATIONS IN AND NEAR THE EASTERN PANHANDLE OF NEBRASKA...

CITY           SKY/WX    TMP DP  RH WIND       PRES   REMARKS
PINE RIDGE     PTSUNNY   38  37  97 S10       30.18R WCI  31
GORDON         CLOUDY    38  36  92 SW8       30.19S WCI  32
CHADRON        CLEAR     33  32  96 SW3       30.18R
ALLIANCE       CLOUDY    37  37 100 S10       30.18R WCI  30
SIDNEY         FOG       35  33  92 S10       30.20R VSB 3/4 WCI  27
CRESCENT LAKE    N/A     36  36 100 S6          N/A  WCI  31
$$

...OBSERVATIONS IN NORTHERN NEBRASKA AND FAR SOUTHERN SOUTH DAKOTA...

CITY           SKY/WX    TMP DP  RH WIND       PRES   REMARKS
WINNER         FAIR      39  33  79 CALM      30.24R
VALENTINE      SUNNY     40  37  89 S5        30.22S
AINSWORTH      SUNNY     38  37  99 S5        30.23S WCI  34
O`NEILL        SUNNY     41  39  95 CALM      30.27R
THEDFORD       SUNNY     39  37  92 E3        30.24R
BROKEN BOW     SUNNY     38  34  85 N5        30.24R WCI  34
ORD            SUNNY     36  35  96 CALM      30.24R FOG
ALBION         MOSUNNY   38  35  91 NW7       30.26R WCI  32
VALENTINE NWR    N/A     35  33  93 S5          N/A  WCI  31
HALSEY           N/A     35  35 100 CALM        N/A
BUTTE            N/A     41  36  83 CALM        N/A
CHAMBERS         N/A     40  39  96 CALM        N/A
EWING            N/A     42  37  82 CALM        N/A
$$

...OBSERVATIONS IN SOUTHWEST NEBRASKA AND FAR NORTHEAST COLORADO...

CITY           SKY/WX    TMP DP  RH WIND       PRES   REMARKS
WRAY           FAIR      36  36 100 SW5       30.21S FOG     WCI  32
HOLYOKE        FOG       37  36  93 CALM      30.21S VSB<1/4
IMPERIAL       CLOUDY    39  39 100 S3        30.23R
OGALLALA       CLOUDY    38  38  98 CALM      30.23R FOG
NORTH PLATTE   PTSUNNY   40  38  93 CALM      30.24R FOG
MCCOOK         FOG       39  38  96 NW6       30.24R VSB 1   WCI  35
LEXINGTON      CLOUDY    39  37  93 NW5       30.24S FOG
STAPLETON        N/A     39  37  93 CALM        N/A
GOTHENBURG       N/A     36  34  93 CALM        N/A
CALLAWAY         N/A     33  30  90 CALM        N/A
$$

...OBSERVATIONS IN CENTRAL LINCOLN COUNTY AREA...

CITY           SKY/WX    TMP DP  RH WIND       PRES   REMARKS
N.P. AIRPORT   PTSUNNY   40  38  93 CALM      30.24R FOG
N.P. DOWNTOWN    N/A     38  37  96 CALM        N/A
N.P. SOUTHEAST   N/A     39  37  94 CALM        N/A
N.P. HILLCREST   N/A     39  38  97 W3          N/A
$$

...OBSERVATIONS ACROSS THE ROCKIES AND WESTERN HIGH PLAINS...

CITY           SKY/WX    TMP DP  RH WIND       PRES   REMARKS
RAPID CITY     SUNNY     34  31  88 E3        30.16R
SCOTTSBLUFF    CLEAR     34  34 100 E7        30.18R FOG     WCI  28
CHEYENNE       CLEAR     32  30  92 W6        30.16R WCI  26
DENVER         PTCLDY    34  31  88 CALM      30.16R
BERTHOUD PASS  CLOUDY    23  12  63 MISG      30.35R
MONARCH PASS     N/A     25  21  86 W9        30.45S WCI  15
ASPEN          CLEAR     28  25  88 S6        30.29R WCI  22
STEAMBOAT      FAIR      30  30 100 CALM      30.27R
LARAMIE        PTCLDY    27  27 100 S3        30.20R
CASPER         CLEAR     36  34  92 S6        30.20R WCI  31
$$

...OBSERVATIONS ACROSS THE NORTHERN PLAINS...

CITY           SKY/WX    TMP DP  RH WIND       PRES   REMARKS
BISMARCK       SUNNY     39  35  86 CALM      30.18R
FARGO          FAIR      40  33  76 S8        30.27R WCI  34
PIERRE         SUNNY     37  34  89 SE5       30.22R WCI  33
SIOUX FALLS    MOSUNNY   39  34  82 NE6       30.30R WCI  35
$$

...OBSERVATIONS ACROSS THE CENTRAL AND SOUTHERN PLAINS...

CITY           SKY/WX    TMP DP  RH WIND       PRES   REMARKS
OMAHA          CLOUDY    48  33  56 N3        30.23R
GRAND ISLAND   CLOUDY    43  38  82 N9        30.25R
KANSAS CITY    CLOUDY    50  34  54 NE16      30.13R
WICHITA        CLOUDY    45  43  93 N17       30.11S
DODGE CITY     SUNNY     40  38  93 NW10      30.19R FOG     WCI  33
OKLAHOMA CITY  PTSUNNY   45  42  89 NW17      30.09R
DALLAS         MOSUNNY   52  45  77 NW17G24   30.09R
AMARILLO       PTSUNNY   41  40  96 NW6       30.21R FOG
$$




USA.gov is the U.S. government's official web portal to all federal, state and local government web resources and services.